Weather Roundup
Issued by NWS

Home | Current Version | Previous Version | Graphics & Text | Print | Product List | Glossary Off
Versions: 1 2 3 4 5 6 7 8 9 10 11 12 13 14 15 16 17 18 19 20 21 22 23 24 25 26 27 28 29 30 31 32 33 34 35 36 37 38 39 40 41 42 43 44 45 46 47 48 49 50

000
NZUS93 KARX 271359
HRRWXR

CURRENT HOURLY OBSERVATIONS ACROSS
MUCH OF THE UPPER MISSISSIPPI VALLEY
NATIONAL WEATHER SERVICE LA CROSSE WI
900 AM CDT WED MAY 27 2015


...SOUTHEAST MINNESOTA...


CITY           SKY/WX    TMP DP  RH WIND       PRES   REMARKS
ROCHESTER      MOSUNNY   63  58  83 W9        29.98R
ROCHESTER/MAYO FAIR      61  59  94 W5        29.96S
WINONA         MOSUNNY   61  55  82 CALM      29.95S
AUSTIN         MOSUNNY   63  57  82 CALM      29.97S
ALBERT LEA     MOSUNNY   64  57  77 SW3       29.97S
DODGE CENTER   MOSUNNY   63  57  82 W9        29.96S
PRESTON        MOSUNNY   62  56  82 NW6       29.97S
OWATONNA       MOSUNNY   63  57  82 SW7       29.96S
FARIBAULT      MOSUNNY   63  59  88 S6        29.95S
$$

...ELSEWHERE IN MINNESOTA...


CITY           SKY/WX    TMP DP  RH WIND       PRES   REMARKS
MINNEAPOLIS    PTSUNNY   63  58  83 S7        29.92S
INTNL FALLS    SUNNY     64  52  64 NW9       29.84R
DULUTH         MOSUNNY   68  52  56 NW8       29.84R
RED WING       PTSUNNY   63  57  82 CALM      29.94R
REDWOOD FALLS  SUNNY     65  54  67 W9        29.94R
MANKATO        MOSUNNY   61  55  82 SW7       29.95S
WORTHINGTON    SUNNY     64  54  68 W12       29.98S
FAIRMONT       SUNNY     64  52  63 W10       29.96S
$$

...SOUTHWEST WISCONSIN...


CITY           SKY/WX    TMP DP  RH WIND       PRES   REMARKS
LA CROSSE      PTSUNNY   64  57  78 N6        29.95R
PRAIRIE DU CHI PTSUNNY   63  57  79 W8        29.96R
BOSCOBEL       CLOUDY    64  57  78 W7        29.95R
LONE ROCK      NOT AVBL
PLATTEVILLE    CLOUDY    61  59  93 W13       29.95R
FORT MC COY    CLOUDY    60  56  88 CALM      29.95R
VIROQUA        PTSUNNY   59  59 100 NW9       29.96R
WIS DELLS      CLOUDY    58  56  92 W8        29.92R
$$

...ELSEWHERE IN WISCONSIN...


CITY           SKY/WX    TMP DP  RH WIND       PRES   REMARKS
MILWAUKEE      PTSUNNY   65  58  78 SW13      29.91R
MADISON        CLOUDY    63  57  81 NW10      29.91R
GREEN BAY      CLOUDY    61  56  83 W13       29.85R
EAU CLAIRE     MOSUNNY   60  56  86 SW7       29.92S
BLACK RVR FLS  PTSUNNY   60  59  96 W5        29.93R
MEDFORD        LGT RAIN  54  54  97 W5        29.91R
WAUSAU         LGT RAIN  56  55  97 W7        29.89R
WIS RAPIDS     LGT RAIN  59  55  87 NW8       29.93R
MARSHFIELD     RAIN      58  54  86 W7        29.92R FOG
RICE LAKE      MOSUNNY   59  54  85 SW5       29.92R
$$

...NORTHEAST IOWA...


CITY           SKY/WX    TMP DP  RH WIND       PRES   REMARKS
DECORAH        PTSUNNY   61  57  88 NW7       29.96R
MASON CITY     MOSUNNY   65  58  78 W12       30.00R
CHARLES CITY   SUNNY     63  61  94 W7        29.99R
OELWEIN        CLOUDY    61  57  88 NW13      29.99R
$$

...ELSEWHERE IN IOWA...


CITY           SKY/WX    TMP DP  RH WIND       PRES   REMARKS
DES MOINES     MOSUNNY   66  57  72 NW8       30.02R
IOWA CITY      NOT AVBL
FORT DODGE     SUNNY     64  57  77 SW6       30.02R
$$

...NORTHERN ILLINOIS...


CITY           SKY/WX    TMP DP  RH WIND       PRES   REMARKS
CHICAGO-OHARE  PTSUNNY   67  59  75 SW16G23   29.94S
CHICAGO-MIDWAY PTSUNNY   71  61  70 W17G23    29.94S
MOLINE         PTSUNNY   67  59  75 W12       29.98R
ROCKFORD       PTSUNNY   66  59  78 W12G28    29.95S
PEORIA         PTSUNNY   70  61  73 SW7       30.00R
$$

NOTE: "FAIR" INDICATES FEW OR NO CLOUDS BELOW 12,000 FEET WITH NO
SIGNIFICANT WEATHER AND/OR OBSTRUCTIONS TO VISIBILITY. WIND
SPEEDS ARE IN MILES-PER-HOUR.



USA.gov is the U.S. government's official web portal to all federal, state and local government web resources and services.